SPACEBEE-93 (48939 NORAD) Tracking and Keplerian Element Data

This shows tracking and keplerian element data for the satellite.

Feedback or suggestion? Click here.




ElementValue
Catalog48939
NameSPACEBEE-93
Epoch Orbit1677
Epoch Day287.64088503
Epoch Year2021
RAAN55.0994
Inclination97.5204
Eccentricity0.00169
Argument of Perigee229.7662
Mean Anonmoly130.2093
Mean Motion15.15000495
Decay Rate8.389E-05
L11 48939U 21059BN 21287.64088503 .00008389 00000-0 45113-3 0 9999
L22 48939 97.5204 55.0994 0016900 229.7662 130.2093 15.15000495 16773

Live tracking and technical data element details for SPACEBEE-93 (NORAD 48939). SPACEBEE-93 can be tracked NOW for your location showing map with azimuth and elevation plus other details from your city location.

Track the satellite on the map from your city or location and see movement details for azimuth, elevation, latitude, longitude, range, height, and movement on the map or in text.







IsCatalogInMostPopularTable: catalog: 48939, numindb: 18
Update: records affected: 1



GetName: 48939 SPACEBEE-93

Hit Count: updated at: Tue, 19 Oct 2021 08:45:02 GMT